カタログに戻る

STARLINK-35887

運用中通信VLEO
NORAD 66959·PAYLOAD·🇺🇸 United States

打ち上げ Dec 8, 2025 から Cape Canaveral Space Force Station

Loading…

次のパス (今後24時間)

TLE

最新Source: CelesTrak SupGP

元期: Sep 15, 2026, 03:13 UTC

1 66959C 25288A   26258.13451389 -.00012675  00000+0 -45912-3 0  2581
2 66959  43.0028  33.4659 0001355 270.5518  23.1848 15.27581953    19

AllMySatでSTARLINK-35887をリアルタイム追跡

Download on the App Store